Temp
59 59 59 59 59 59 59 59 59 59 60 60 60 60 60 60 59 53 46 57 57 65 69 66 67 67 64 59 64 63 47 45 52 56 63 66 62 72 79 79 82 85 82 87 88
59 59 59 59 59 59 59 59 59 59 59 60 60 60 59 59 51 47 58 66 68 69 61 59 60 64 56 57 59 55 49 53 62 67 59 66 64 70 75 75 77 82 84 89 88
58 59 59 59 58 58 58 58 58 59 59 59 59 59 59 58 45 55 71 70 68 70 67 65 64 62 54 55 56 54 55 64 64 68 68 68 70 73 71 68 74 77 80 86 86
58 58 58 58 58 58 58 58 58 58 58 58 58 59 59 52 47 62 72 72 73 69 66 63 60 53 52 53 57 51 63 65 62 68 67 65 70 68 71 73 79 80 82 86 84
57 58 58 58 58 58 58 58 58 58 58 58 58 59 54 42 44 63 71 69 70 67 63 60 55 52 48 53 56 56 58 64 68 68 68 71 69 69 72 78 80 81 81 81 80
57 57 57 57 57 57 57 57 57 57 58 58 58 58 51 38 60 66 68 65 66 63 60 59 58 58 53 55 54 58 60 64 67 65 64 66 68 67 75 78 79 79 78 78 77
57 56 57 57 57 57 57 57 56 57 58 58 59 57 48 44 63 67 61 57 63 67 62 65 65 59 57 55 62 62 56 62 64 65 65 69 63 66 76 75 75 77 77 77 77
56 56 56 56 57 57 57 57 56 58 60 59 59 53 41 60 61 59 62 60 64 67 68 70 69 62 55 60 59 53 53 48 61 65 65 65 57 70 74 73 73 74 76 76 74
56 56 56 56 56 57 57 56 57 60 60 59 51 46 42 63 61 67 62 63 67 68 67 74 66 58 56 50 45 47 43 46 52 61 64 63 60 68 74 71 71 71 72 75 73
56 56 55 56 56 56 56 56 58 59 60 60 59 44 52 58 65 70 70 69 63 63 61 58 53 47 44 43 37 42 41 46 48 56 61 59 61 69 70 74 72 70 72 72 71
56 55 55 55 56 56 52 48 53 48 50 49 53 52 56 62 69 66 69 66 62 56 45 52 43 39 46 48 50 50 48 46 53 60 57 55 61 64 67 67 72 73 72 72 70
55 55 55 55 55 55 50 50 53 55 44 57 58 58 63 64 58 65 70 57 52 44 49 44 43 50 54 53 50 48 46 45 52 58 55 57 58 63 65 66 70 71 72 73 68
55 55 55 55 54 53 51 56 60 55 41 51 60 62 62 65 59 58 64 58 52 46 45 41 47 55 53 49 48 47 44 45 46 55 58 54 51 56 62 68 72 73 74 73 71
54 54 55 54 52 49 50 62 58 55 34 49 55 59 63 62 55 65 67 59 53 45 47 44 51 51 49 49 49 40 51 51 50 47 40 53 39 53 55 60 66 72 71 74 73
54 54 55 54 45 47 57 57 59 53 22 53 54 67 63 54 58 59 63 58 47 47 46 44 45 45 45 48 54 46 53 50 48 44 44 46 37 49 55 56 60 68 73 74 72
53 54 54 51 46 54 59 58 53 32 25 46 55 52 51 53 54 57 56 57 53 47 46 45 54 48 48 53 55 55 48 45 42 42 33 43 40 44 52 57 63 68 73 76 69
53 53 51 55 50 57 56 50 33 24 49 44 45 50 48 45 48 49 47 43 36 33 35 42 45 51 54 46 50 47 36 25 26 29 30 45 40 45 54 62 65 66 72 72 71
52 52 51 58 54 56 52 41 27 41 41 51 49 49 42 46 45 45 43 39 39 39 36 31 34 46 50 47 41 41 37 32 24 26 32 46 37 47 61 66 66 68 71 70 67
51 46 48 56 59 54 45 26 31 39 47 46 47 41 41 44 42 41 39 38 42 42 32 32 36 50 52 53 49 41 35 43 35 38 32 33 44 55 60 62 64 67 69 64 64
45 42 47 59 58 50 38 34 39 49 50 48 36 42 34 38 37 37 36 45 45 48 47 39 31 46 50 51 49 44 48 32 32 24 24 30 36 40 53 57 58 61 62 63 57
41 41 54 59 54 42 29 33 44 52 53 45 41 37 37 35 36 35 37 45 48 45 44 41 34 38 43 40 39 41 37 38 36 32 23 23 31 52 52 51 48 53 58 59 59
42 35 55 55 39 36 33 41 47 49 53 50 46 42 36 36 34 37 37 42 47 45 37 40 34 27 34 46 50 45 40 38 31 29 31 30 33 54 49 49 52 54 58 56 62
39 38 53 50 29 29 38 42 46 47 46 46 43 45 42 37 32 35 39 49 47 44 37 38 31 23 27 38 44 38 39 40 37 36 33 26 33 54 53 51 51 53 57 58 64
40 33 38 39 38 31 31 35 39 50 46 47 44 43 38 36 40 35 36 43 47 45 48 45 37 32 27 29 36 34 40 41 37 32 34 35 41 48 50 47 49 52 56 61 65
37 33 36 27 35 35 35 37 36 35 45 44 40 40 36 31 34 35 40 40 44 46 44 41 33 37 38 40 40 40 40 41 40 38 36 41 43 45 46 46 49 53 59 61 63
34 35 37 37 42 39 36 34 35 37 38 38 36 40 39 33 35 33 36 37 36 42 38 40 30 34 31 40 41 39 41 43 43 45 45 44 43 47 47 50 48 53 60 60 61
39 40 39 39 40 38 35 37 37 39 42 44 41 38 36 40 43 43 43 42 40 38 37 35 33 31 27 37 34 31 40 43 46 48 45 38 46 48 46 46 47 46 48 59 58
MSLP
1021.17 1020.66 1020.14 1019.61 1019.11 1018.64 1018.24 1017.84 1017.45 1017.15 1016.80 1016.42 1016.01 1015.62 1015.18 1014.62 1013.98 1013.58 1012.16 1009.28 1009.29 1008.75 1008.75 1008.93 1008.71 1008.89 1009.14 1009.36 1009.20 1009.04 1009.65 1008.77 1007.55 1006.47 1004.51 1002.92 1003.16 1002.11 1001.44 1000.97 999.69 998.25 998.19 998.50 999.96
1021.13 1020.55 1019.98 1019.41 1018.88 1018.44 1018.00 1017.55 1017.15 1016.75 1016.35 1016.00 1015.67 1015.29 1014.83 1014.22 1013.55 1011.90 1008.60 1008.24 1008.32 1008.48 1009.30 1009.08 1008.88 1009.06 1009.24 1009.07 1008.92 1008.79 1008.35 1006.70 1005.52 1005.08 1004.31 1003.36 1003.21 1002.42 1001.95 1001.17 1000.13 998.57 997.66 998.44 1000.02
1021.09 1020.44 1019.78 1019.08 1018.46 1017.91 1017.43 1016.93 1016.55 1016.26 1016.00 1015.70 1015.36 1015.11 1014.71 1014.17 1012.95 1008.93 1007.41 1007.24 1007.67 1007.98 1008.45 1008.78 1008.81 1008.95 1009.06 1008.70 1008.31 1007.68 1005.97 1005.86 1005.10 1004.87 1004.38 1003.61 1002.97 1002.53 1002.08 1001.30 1000.24 999.91 998.60 998.69 999.78
1020.98 1020.15 1019.40 1018.58 1017.88 1017.33 1016.82 1016.46 1016.04 1015.62 1015.36 1015.15 1014.99 1014.67 1014.40 1014.41 1012.14 1007.99 1007.46 1007.39 1007.53 1007.36 1007.92 1008.44 1008.68 1008.81 1008.61 1008.12 1007.31 1006.87 1005.41 1005.20 1004.70 1004.58 1004.11 1003.44 1002.82 1002.21 1001.97 1001.01 1000.11 999.63 999.11 998.75 999.53
1021.14 1020.37 1019.78 1019.03 1018.26 1017.27 1016.15 1015.48 1015.07 1014.59 1014.97 1014.76 1014.56 1014.34 1014.30 1014.11 1011.09 1008.25 1007.91 1007.79 1007.31 1007.13 1007.35 1007.58 1008.15 1008.46 1008.01 1007.33 1007.00 1005.92 1005.11 1004.55 1004.36 1004.18 1003.36 1003.31 1002.47 1002.01 1000.98 1000.99 1000.20 999.44 999.65 998.80 999.51
1021.23 1020.40 1019.63 1018.77 1018.09 1017.37 1016.48 1015.66 1014.75 1014.02 1013.84 1014.23 1014.22 1014.18 1014.14 1013.30 1009.09 1008.36 1008.02 1007.87 1007.42 1007.16 1007.09 1007.17 1007.06 1007.16 1007.49 1006.88 1006.43 1005.08 1004.85 1004.38 1003.75 1003.08 1003.00 1002.96 1002.22 1002.30 998.88 1000.21 1000.11 999.51 999.34 999.10 999.39
1020.96 1020.09 1019.27 1018.58 1017.80 1016.91 1015.81 1014.88 1014.12 1013.87 1013.35 1013.51 1013.45 1013.62 1013.16 1010.71 1008.84 1007.91 1008.00 1007.85 1007.19 1007.17 1006.81 1006.53 1006.45 1006.89 1006.43 1006.75 1005.59 1005.29 1004.69 1003.90 1002.79 1002.56 1002.33 1002.79 1001.59 999.56 998.97 1000.15 1000.03 999.51 999.09 999.05 999.17
1020.54 1019.63 1018.75 1017.99 1017.11 1016.30 1015.27 1014.11 1013.29 1012.89 1012.44 1012.52 1013.08 1013.09 1012.41 1009.20 1008.47 1008.41 1007.26 1006.94 1006.49 1006.04 1006.16 1005.87 1005.90 1006.19 1006.63 1006.28 1005.51 1005.47 1004.83 1003.92 1001.71 1002.28 1002.13 1002.52 998.93 998.78 999.11 999.65 999.68 999.52 999.02 999.15 999.62
1020.16 1019.13 1018.15 1017.20 1016.44 1015.70 1014.40 1013.16 1012.24 1012.05 1012.06 1012.40 1012.77 1012.82 1010.56 1008.36 1007.95 1006.72 1006.82 1006.57 1005.62 1005.19 1005.16 1005.38 1005.41 1005.93 1006.15 1006.50 1006.75 1005.38 1004.17 1003.56 1003.00 1001.83 1001.62 1001.18 998.38 999.22 998.75 998.95 999.08 999.13 998.96 998.92 999.61
1020.02 1019.04 1017.91 1016.81 1015.83 1015.25 1013.97 1012.53 1011.63 1012.27 1012.43 1012.37 1012.13 1012.65 1009.67 1008.11 1006.83 1006.10 1005.47 1005.46 1005.61 1005.21 1005.01 1005.01 1005.49 1005.69 1005.97 1006.20 1005.33 1004.93 1004.64 1004.08 1003.02 1002.12 1001.48 1000.64 999.09 999.00 998.78 998.53 998.28 998.53 998.48 998.78 999.57
1019.73 1018.84 1017.83 1016.68 1015.52 1014.60 1014.09 1013.25 1012.48 1012.45 1012.11 1011.73 1011.02 1010.82 1009.21 1007.56 1006.94 1005.70 1005.08 1004.44 1004.81 1005.24 1005.58 1005.67 1005.82 1005.51 1005.04 1005.83 1005.90 1005.49 1004.82 1004.20 1002.84 1002.42 1001.99 1000.93 999.26 999.06 998.70 998.46 997.97 997.58 997.98 998.35 999.41
1019.48 1018.62 1017.75 1016.57 1015.40 1014.63 1014.28 1014.14 1013.51 1013.56 1012.46 1010.37 1009.68 1009.28 1008.16 1007.41 1006.39 1005.20 1004.42 1005.03 1005.08 1005.51 1005.83 1006.03 1005.44 1004.87 1005.30 1005.62 1005.56 1005.54 1005.12 1004.10 1003.24 1002.69 1002.47 1001.19 999.58 999.18 998.41 997.99 997.67 997.46 997.41 997.66 999.48
1019.37 1018.29 1017.63 1016.49 1015.26 1014.45 1014.49 1013.23 1012.70 1012.96 1013.16 1010.41 1008.99 1008.29 1007.60 1007.18 1006.56 1005.72 1005.08 1004.81 1004.95 1005.21 1005.59 1005.97 1004.75 1005.01 1004.90 1005.01 1005.03 1005.06 1005.20 1004.27 1004.00 1003.36 1002.11 1002.20 1000.60 999.43 998.43 997.51 996.94 996.73 996.38 996.98 998.57
1019.18 1018.20 1017.31 1016.52 1015.16 1015.22 1014.07 1012.75 1012.48 1012.85 1012.56 1010.36 1008.66 1007.91 1007.18 1006.77 1006.45 1006.00 1005.64 1005.54 1005.01 1005.32 1005.31 1005.04 1004.39 1004.52 1004.58 1004.57 1004.65 1004.73 1005.03 1004.45 1004.28 1004.38 1002.16 1002.10 1001.00 999.24 998.60 997.88 996.76 996.07 995.91 995.78 997.51
1018.81 1017.94 1017.03 1016.71 1016.18 1015.28 1013.16 1012.33 1011.97 1012.57 1012.45 1010.29 1008.87 1007.76 1007.73 1007.96 1007.30 1006.25 1006.25 1005.60 1005.77 1005.83 1005.93 1004.92 1004.41 1004.28 1003.83 1003.64 1004.14 1004.16 1004.78 1004.72 1004.94 1004.77 1003.40 1002.78 1002.72 998.37 998.67 997.78 996.62 995.42 994.74 994.64 996.45
1018.54 1017.31 1017.06 1015.90 1015.91 1013.63 1012.45 1012.28 1012.22 1013.43 1012.07 1010.25 1009.17 1008.46 1008.36 1007.91 1007.51 1007.06 1006.74 1006.85 1006.60 1005.87 1005.57 1005.04 1004.14 1004.01 1003.56 1003.49 1003.75 1004.34 1005.07 1005.35 1005.37 1005.16 1003.54 1002.43 1002.88 998.60 997.72 996.78 995.71 994.93 993.87 993.85 995.73
1017.97 1016.53 1016.22 1015.56 1014.43 1012.54 1012.86 1012.81 1013.50 1013.16 1012.06 1010.73 1009.68 1009.24 1009.02 1008.58 1008.13 1007.95 1007.59 1007.60 1008.16 1007.57 1006.47 1005.29 1003.92 1003.01 1003.17 1003.77 1003.92 1004.52 1005.37 1006.06 1005.80 1005.05 1003.21 1002.27 1002.23 998.86 997.07 996.15 995.10 994.58 993.66 993.97 995.07
1017.26 1015.85 1014.91 1013.96 1013.06 1012.81 1013.20 1013.70 1014.10 1013.27 1012.57 1011.26 1010.33 1009.79 1009.60 1009.22 1009.13 1008.72 1008.29 1008.47 1008.91 1008.77 1007.67 1006.39 1004.55 1003.60 1003.74 1003.42 1003.59 1003.91 1004.94 1005.39 1005.40 1004.34 1003.54 1001.63 1000.64 998.86 996.29 995.82 995.08 994.65 994.03 993.74 994.17
1016.94 1015.57 1014.80 1012.93 1012.28 1012.86 1014.11 1014.93 1014.58 1013.52 1012.47 1011.39 1010.50 1010.00 1010.08 1010.19 1010.09 1009.59 1009.13 1008.70 1008.84 1009.00 1008.67 1007.19 1005.32 1003.90 1003.34 1002.94 1003.46 1003.33 1003.96 1004.62 1005.23 1004.68 1003.99 1001.98 999.81 998.87 996.45 995.79 995.19 994.77 994.41 993.77 993.95
1017.98 1016.76 1014.81 1012.45 1012.18 1013.16 1014.76 1015.20 1014.27 1013.48 1012.78 1011.99 1011.63 1011.36 1010.75 1010.47 1010.42 1010.31 1009.60 1008.18 1008.26 1008.31 1008.17 1007.30 1005.72 1003.87 1003.16 1002.96 1002.96 1003.01 1003.31 1004.28 1004.76 1004.68 1003.85 1001.78 1000.11 998.45 996.42 995.90 996.05 995.21 994.61 993.84 994.68
1018.31 1017.01 1013.87 1012.60 1012.77 1014.50 1015.98 1015.84 1014.53 1013.50 1012.80 1012.23 1011.94 1011.78 1012.05 1011.42 1011.12 1010.65 1009.57 1008.28 1008.28 1008.00 1008.06 1007.42 1006.69 1004.74 1004.08 1003.04 1002.73 1003.23 1003.02 1003.51 1003.77 1004.10 1003.16 1001.59 999.01 997.29 996.38 996.82 996.68 996.04 995.18 994.53 994.24
1019.79 1017.95 1014.34 1013.28 1014.93 1016.62 1017.15 1016.32 1015.04 1013.52 1012.69 1012.16 1012.26 1012.43 1012.37 1011.99 1011.59 1010.68 1009.51 1008.54 1008.51 1008.56 1008.27 1007.72 1007.01 1005.67 1004.08 1002.71 1002.38 1002.70 1003.05 1003.38 1003.25 1003.33 1002.49 1001.32 998.13 996.63 996.43 996.69 996.29 996.13 995.31 994.78 993.97
1020.77 1018.83 1015.46 1015.13 1017.87 1018.45 1017.78 1016.64 1015.66 1014.09 1013.15 1012.51 1012.52 1012.43 1012.63 1012.45 1011.65 1010.51 1009.50 1008.41 1008.69 1008.43 1008.46 1008.23 1007.17 1006.16 1004.08 1002.89 1002.62 1002.70 1002.81 1002.82 1002.85 1002.50 1001.65 1001.00 998.50 996.69 996.15 996.35 996.50 996.29 995.22 994.95 994.64
1021.37 1020.19 1018.52 1018.49 1019.40 1019.53 1018.95 1017.28 1015.85 1014.43 1013.65 1013.33 1012.83 1012.72 1012.73 1012.12 1011.54 1010.11 1009.37 1008.56 1008.22 1008.00 1007.70 1007.47 1006.83 1006.36 1005.12 1003.70 1003.31 1002.75 1001.93 1001.67 1001.72 1000.94 1000.29 999.29 998.20 997.09 996.95 996.88 996.72 996.38 995.69 994.89 994.96
1021.94 1021.79 1021.21 1020.46 1019.83 1019.80 1019.25 1017.74 1016.63 1015.71 1014.21 1013.52 1013.10 1012.90 1012.52 1011.37 1010.40 1009.48 1008.97 1008.41 1007.93 1007.14 1007.14 1007.09 1006.39 1005.62 1004.47 1003.37 1002.55 1001.46 1000.52 999.75 999.57 998.98 998.31 997.54 997.74 997.43 997.39 997.46 996.99 996.72 996.53 995.65 995.56
1022.93 1022.69 1021.98 1021.28 1020.25 1019.42 1018.60 1017.70 1017.03 1015.98 1015.62 1013.72 1013.63 1012.34 1011.60 1010.87 1010.38 1008.80 1008.77 1008.03 1007.70 1007.16 1007.11 1007.11 1006.54 1005.65 1003.91 1002.23 1001.20 1000.19 999.30 998.26 997.91 997.30 997.20 996.94 997.11 997.29 997.52 997.29 997.32 997.32 996.48 996.20 996.20
1023.47 1023.03 1022.53 1020.99 1020.12 1019.42 1018.81 1018.19 1017.23 1016.52 1014.54 1013.95 1013.34 1012.30 1010.72 1009.67 1009.01 1007.83 1007.40 1007.07 1007.30 1007.11 1007.00 1007.20 1006.71 1005.76 1003.66 1001.86 1000.73 999.25 997.14 996.20 995.85 996.26 996.24 996.47 996.46 997.17 997.33 997.41 998.41 999.03 998.29 996.51 996.92
Wind_Speed
22 22 22 23 23 23 23 22 20 19 19 19 19 19 20 22 23 10 11 16 13 21 2 3 1 3 2 4 4 3 2 7 10 11 19 7 4 2 4 8 11 8 10 18 22
23 23 23 23 23 22 22 22 22 23 22 21 20 19 20 21 17 15 16 14 18 10 5 3 3 5 4 6 5 6 8 13 8 17 6 9 5 8 7 11 12 5 4 23 25
24 25 25 25 26 25 26 25 24 22 20 18 18 19 17 16 7 8 5 10 19 16 10 7 4 4 6 5 7 7 19 19 9 13 12 15 16 6 5 6 8 10 6 27 26
27 28 29 29 29 29 29 27 26 24 21 20 18 16 12 3 8 3 7 13 13 9 10 9 6 6 7 12 8 7 14 17 3 8 7 9 8 5 6 11 11 10 9 23 27
26 27 27 28 29 31 32 31 30 28 20 17 14 12 4 2 15 11 24 16 13 5 17 14 10 5 6 6 6 13 4 7 16 16 18 17 21 19 22 14 12 12 9 10 13
24 26 27 28 27 27 26 27 28 27 24 17 11 6 2 10 5 11 8 18 6 5 8 8 8 9 5 7 9 4 6 17 17 16 8 16 19 5 23 6 9 10 9 6 10
24 26 27 27 27 27 26 26 25 23 23 14 8 5 4 20 6 17 19 7 4 9 7 13 12 5 4 11 13 12 15 15 19 15 15 10 19 30 25 5 10 12 9 7 6
25 26 28 28 27 26 25 26 26 22 16 4 6 4 9 8 9 10 15 8 10 12 17 12 13 14 6 6 7 5 5 12 15 14 8 10 31 22 12 8 11 10 10 7 5
27 28 29 29 28 27 27 27 25 13 8 10 5 3 13 8 6 9 7 7 11 8 6 13 7 11 5 7 5 6 13 13 10 8 7 18 25 8 9 9 12 11 10 9 7
27 28 30 30 29 25 28 24 17 5 7 5 1 2 6 11 11 12 7 11 11 10 7 3 2 4 2 7 17 10 5 4 7 4 10 12 24 17 9 14 15 10 12 10 6
28 28 29 30 29 28 13 7 9 6 1 5 9 5 15 8 11 8 12 5 1 1 4 5 3 10 16 5 8 12 12 9 9 7 8 9 21 12 11 9 15 15 11 11 8
30 29 28 29 30 27 2 5 1 6 11 13 9 9 12 7 13 13 1 3 3 5 3 2 13 15 6 9 12 8 13 17 16 12 7 13 23 12 9 10 13 16 16 15 10
29 29 28 28 29 6 6 7 3 4 1 10 6 7 15 13 10 10 6 4 6 9 7 12 18 7 9 9 15 15 14 17 16 16 20 11 18 18 6 12 12 16 15 13 13
30 30 27 30 5 5 7 8 3 3 4 10 4 4 16 17 3 3 10 6 3 6 8 10 11 11 13 16 5 12 8 17 15 8 14 6 10 16 4 10 12 18 16 20 13
32 31 28 19 5 4 10 7 4 6 4 14 4 7 18 11 15 15 10 7 5 6 2 6 4 4 9 16 13 15 10 16 10 13 15 16 3 18 7 10 12 17 22 20 14
33 33 28 3 2 11 8 10 5 8 4 8 10 13 18 7 15 15 11 6 6 5 5 8 4 4 4 10 8 11 3 9 3 8 13 18 7 18 14 18 16 15 23 21 12
34 36 22 3 5 6 6 5 6 5 8 7 20 18 14 6 16 13 17 8 5 8 5 6 6 4 9 10 5 5 6 2 6 9 11 14 9 23 8 14 20 17 20 11 17
37 32 5 7 7 4 4 6 6 4 11 13 14 19 9 9 8 14 14 9 3 3 5 5 5 3 3 5 6 9 12 7 11 14 14 18 10 17 20 25 14 7 18 12 15
31 5 5 6 6 3 7 5 4 4 10 14 17 9 13 15 5 6 8 4 3 6 6 4 5 5 13 11 11 3 8 13 8 6 3 5 7 20 20 19 12 18 16 10 10
8 5 5 8 3 5 6 5 3 8 13 12 7 8 16 17 7 8 5 6 6 9 9 5 9 9 1 1 7 7 4 4 3 5 10 7 8 9 26 24 10 12 11 12 2
4 5 5 8 4 7 3 5 8 16 12 7 13 10 9 12 6 7 6 11 5 10 6 5 6 7 9 5 5 6 3 3 5 6 5 3 6 18 15 2 3 9 11 8 11
5 5 6 6 7 3 3 7 11 10 9 9 5 8 7 9 5 9 7 5 17 8 8 4 4 5 11 12 10 3 5 3 7 5 4 2 11 5 3 3 5 11 16 5 13
7 5 4 7 5 4 8 10 7 17 11 6 12 8 7 6 9 8 6 8 11 15 3 2 4 5 11 3 5 3 5 5 6 3 7 5 4 3 7 7 7 12 19 11 17
4 5 6 6 1 2 5 7 12 12 10 17 8 7 5 11 12 8 12 9 10 17 18 11 5 7 10 12 6 13 17 15 11 8 7 13 12 6 5 7 7 13 7 21 24
3 2 0 6 7 12 10 7 13 12 6 7 6 8 16 9 17 6 9 16 15 17 4 2 6 11 16 20 18 21 22 22 18 9 14 13 11 4 4 6 7 9 13 21 24
3 4 5 8 11 12 9 4 10 18 14 7 14 23 20 10 12 23 19 18 5 4 2 1 5 7 17 18 16 17 16 16 18 10 14 4 5 5 3 8 8 12 20 21 24
4 5 2 5 6 9 5 14 18 18 12 16 20 20 19 15 20 26 22 20 15 6 2 3 3 4 6 13 17 7 7 10 6 4 10 10 6 6 2 6 2 3 13 22 25
Wind_Direction
351 348 344 341 339 336 332 328 324 323 323 321 321 321 321 319 312 303 247 225 194 241 251 354 53 211 131 202 214 161 173 221 221 220 232 312 279 207 292 266 284 218 155 185 159
348 345 342 339 335 331 326 323 323 325 325 324 324 323 322 319 303 263 248 239 231 232 202 173 211 178 187 193 210 171 204 221 215 230 268 279 259 292 348 314 300 307 25 155 155
347 344 340 336 332 329 327 326 325 323 321 322 322 323 323 325 307 248 274 222 228 220 217 170 226 186 205 164 204 201 228 226 263 234 260 269 279 288 274 282 251 280 149 155 163
344 341 338 334 331 329 326 325 323 318 317 320 321 322 320 339 281 9 34 4 348 216 190 212 205 184 203 207 199 237 235 232 225 259 256 247 283 229 260 257 269 295 243 160 165
339 334 333 329 329 328 325 324 321 314 318 318 321 319 7 354 251 294 303 346 317 175 197 194 198 198 199 207 229 236 231 218 236 238 253 274 267 270 268 263 276 286 238 177 166
333 330 329 327 327 322 315 313 309 309 313 315 314 315 253 283 252 273 324 325 316 223 209 182 210 192 265 221 214 219 231 248 252 249 236 243 264 252 263 206 255 280 249 222 178
333 328 328 329 327 323 317 309 303 306 303 307 268 226 239 251 271 296 305 251 266 268 246 218 223 219 194 280 283 269 272 275 247 241 246 248 263 245 260 200 248 259 252 243 198
336 332 330 330 328 325 317 308 304 307 300 275 193 172 245 253 265 280 278 273 254 247 226 242 219 229 196 269 308 313 259 241 252 230 215 184 255 252 259 171 242 252 257 223 217
337 334 333 332 331 331 320 311 300 310 126 141 121 160 271 279 255 252 191 286 292 287 212 246 225 220 244 233 307 217 249 239 279 214 189 202 256 241 229 220 231 238 248 239 188
338 337 335 334 331 333 323 310 301 99 121 181 173 320 271 311 301 292 260 233 252 266 312 201 56 189 191 179 214 236 262 251 233 265 208 244 253 239 232 220 230 223 231 240 180
338 339 337 333 330 329 340 352 16 345 319 231 253 233 277 264 295 273 295 340 250 269 219 262 195 226 234 249 273 293 288 288 272 241 258 262 261 245 216 227 236 238 233 227 186
337 338 338 331 325 322 57 8 354 209 305 304 259 220 262 265 302 309 355 15 37 269 237 307 245 245 267 236 256 274 280 273 288 278 282 261 269 275 230 219 217 225 230 234 127
336 335 337 330 320 338 316 265 188 130 280 294 259 7 343 342 331 323 341 250 228 275 269 227 242 245 246 243 240 239 247 268 271 303 281 278 284 275 273 243 236 221 220 215 166
334 334 336 336 17 329 297 289 137 100 15 318 39 342 339 325 282 301 343 295 209 246 272 249 223 239 256 255 285 274 256 259 268 288 258 118 267 265 234 267 237 227 219 221 173
332 331 331 329 258 316 252 306 327 71 19 337 2 290 335 26 347 1 26 330 320 309 281 268 347 298 259 233 230 260 281 270 290 283 270 270 264 271 216 245 249 231 224 222 170
330 326 332 346 240 239 280 301 61 46 303 320 348 343 340 343 359 331 344 21 271 278 211 245 245 197 217 287 229 254 216 309 286 238 251 245 195 265 247 232 253 247 235 219 157
328 322 322 243 254 275 328 25 38 91 330 311 327 338 330 334 339 335 331 1 3 333 8 305 255 250 218 237 244 183 99 244 247 232 241 239 218 251 251 232 239 249 250 211 161
327 318 246 224 249 324 25 44 52 341 308 305 315 315 306 341 324 329 327 330 101 310 293 336 327 119 185 229 219 198 169 202 211 222 235 243 235 229 236 250 266 228 258 214 172
326 324 304 266 245 106 63 42 225 314 302 321 322 308 314 328 298 356 319 255 109 21 333 299 258 293 269 250 212 203 199 207 240 250 255 273 226 271 269 269 262 242 262 259 173
325 326 287 278 328 71 80 226 252 330 353 326 321 311 319 329 323 354 295 255 338 24 343 270 295 276 219 227 225 207 194 147 178 230 225 235 232 242 234 248 299 264 244 257 138
10 357 261 310 67 45 100 262 307 325 325 341 307 309 304 310 315 308 249 286 12 337 324 278 215 285 350 223 197 203 207 195 156 170 206 219 236 207 243 151 319 315 313 265 152
351 339 307 8 53 25 338 296 298 309 351 327 336 323 270 295 316 293 251 287 1 12 314 291 273 259 240 250 264 249 282 274 214 219 224 231 254 295 122 82 5 335 319 244 157
325 277 326 54 47 348 308 317 290 318 342 335 318 308 308 300 298 246 290 290 311 336 289 305 260 313 324 25 74 192 200 269 232 211 203 186 256 39 0 357 328 347 313 152 144
339 343 333 35 63 7 324 294 337 316 311 347 304 342 295 294 291 277 274 288 310 300 290 266 240 223 255 248 294 276 274 245 222 215 188 229 269 286 304 301 321 358 199 151 155
24 323 113 317 342 318 310 274 335 340 302 319 311 319 316 296 308 253 284 291 302 288 262 223 258 244 256 266 271 270 274 279 272 225 194 219 227 211 222 283 298 334 183 154 147
35 2 342 290 311 323 319 337 319 329 322 287 320 313 313 289 273 294 302 300 275 293 315 357 275 311 295 274 266 290 285 274 270 208 226 163 211 127 288 12 330 318 172 152 141
337 320 271 278 304 324 298 328 310 324 303 314 310 313 307 297 304 289 276 267 253 237 206 240 275 294 264 324 310 272 284 253 217 220 197 204 178 167 76 321 266 341 291 145 126